Miscellaneous Local Product
Issued by NWS Hastings, NE

Home | Current Version | Previous Version | Graphics & Text | Print | Product List | Glossary On
Versions: 1 2 3 4 5 6 7 8 9 10 11 12 13 14 15 16 17 18 19 20 21 22 23 24 25 26 27 28 29 30 31 32 33 34 35 36 37 38 39 40 41 42 43 44 45 46 47 48 49 50
000
AXUS43 KGID 270402
MISGRI

GID CWA HOURLY WEATHER ROUNDUP
NATIONAL WEATHER SERVICE HASTINGS NE
1100 PM CDT THU MAY 26 2016

NOTE: "FAIR" INDICATES FEW OR NO CLOUDS BELOW 12,000 FEET WITH NO
SIGNIFICANT WEATHER AND/OR OBSTRUCTIONS TO VISIBILITY.

...SOUTH CENTRAL NEBRASKA...

CITY           SKY/WX    TMP DP  RH WIND       PRES   REMARKS
GRAND ISLAND   LGT RAIN  60  57  89 E37G47    29.74F
HASTINGS       LGT RAIN  59  56  89 E32G44    29.74R
KEARNEY        CLOUDY    61  55  82 E28G38    29.76S
ORD            CLOUDY    61  56  83 S8        29.77R
YORK           LGT RAIN  61  57  88 S17G23    29.85R
AURORA         RAIN      61  59  91 S16G22    29.86R
LEXINGTON      TSTM      61  56  86 SE8G18    29.80R
HOLDREGE       CLOUDY    60  57  91 E15G25    29.80R THUNDER
HEBRON         TSTM      61  58  90 SE7       29.87R

...NEBRASKA PANHANDLE...

CITY           SKY/WX    TMP DP  RH WIND       PRES   REMARKS
CHADRON        CLOUDY    47  43  86 W3        29.84R
ALLIANCE       CLOUDY    54  47  77 NW7       29.84R
SCOTTSBLUFF    CLOUDY    55  43  63 NW8       29.85S
SIDNEY         LGT RAIN  54  46  74 S7        29.87R

...WESTERN AND NORTH CENTRAL NEBRASKA...

CITY           SKY/WX    TMP DP  RH WIND       PRES   REMARKS
VALENTINE      TSTM      57  51  80 E12       29.82R
AINSWORTH      MOCLDY    64  58  80 E8        29.80R
ONEILL         CLOUDY    65  57  75 SE3       29.78R
BROKEN BOW     TSTM      63  55  75 SE13G24   29.81R
IMPERIAL       CLOUDY    53  51  93 N14       29.71F
NORTH PLATTE   LGT RAIN  61  51  70 VRB3      29.81R
MCCOOK         CLOUDY    55  51  86 N25G37    29.70F

...EASTERN NEBRASKA...

CITY           SKY/WX    TMP DP  RH WIND       PRES   REMARKS
NORFOLK        CLOUDY    61  57  87 SE10      29.80R
SO SIOUX CITY  CLOUDY    64  55  72 S10       29.79R
TEKAMAH        CLOUDY    64  53  67 SW12      29.78R
COLUMBUS       CLOUDY    63  52  67 E8        29.82R
ALBION         CLOUDY    61  57  85 SE8       29.79R
OMAHA EPPLEY   CLOUDY    66  53  63 SE30G44   29.77R
OFFUTT AFB     CLOUDY    64  56  74 E22G33    29.78R
MILLARD        CLOUDY    65  55  72 E10G17    29.79R
LINCOLN        CLOUDY    63  57  81 SE21      29.81R
NEBRASKA CITY  LGT RAIN  61  60  96 SE25G37   29.76F
BEATRICE       LGT RAIN  62  60  91 E21G32    29.78F
FALLS CITY     HVY RAIN  62  62 100 E18       29.87S FOG

...NORTHERN KANSAS...

CITY           SKY/WX    TMP DP  RH WIND       PRES   REMARKS
GOODLAND       NOT AVBL
HILL CITY      TSTM      60  56  86 N24G36    29.72F
NORTON         RAIN      55  48  76 W3        29.81R
PHILLIPSBURG   LGT RAIN  61  55  82 W15G37    29.80R
SMITH CENTER   CLOUDY    59  57  94 E23G38    29.70F
BELOIT         CLOUDY    61  59  94 NE23      29.74F
HAYS           CLOUDY    34 N/A N/A N13G28    29.75R THUNDER WCI  25
RUSSELL        TSTM      58  56  93 E29G40    29.69F
CONCORDIA      RAIN      61  59  93 VRB5      29.85R FOG
SALINA         TSTM      59  58  96 E9        29.84S FOG
TOPEKA         RAIN      63  61  93 E10       29.85F FOG



USA.gov is the U.S. government's official web portal to all federal, state and local government web resources and services.